Flag for Greenland Weather past 2 weeks in Qaanaaq, Greenland

Now
-27 °F

Sunny.


Feels Like: -44 °F
Forecast: -37 / -28 °F
Wind: 6 mph from East

Location: Thule A. B.

Current Time: Mar 4, 2015 at 12:49:30 PM

Latest Report: Mar 4, 2015 at 11:58 AM


Visibility: N/A

Pressure: 29.34 "Hg

Humidity: 91%

Dew point: -29 °F

Location of QaanaaqLocation

Historic Weather in Qaanaaq — Graph

°F

Qaanaaq temperature yesterday

Maximum temperature yesterday: -22 °F (at 11:58 AM)
Minimum temperature yesterday: -27 °F (at 4:55 PM)
Average temperature yesterday: -25 °F

Past Weeks' High & Low Weather Summary

 TemperatureHumidityPressure
High-11 °F (Feb 26, 10:58 AM)100% (Feb 17, 12:58 PM)30.36 "Hg (Feb 17, 12:58 PM)
Low-33 °F (Feb 17, 9:58 PM)56% (Feb 18, 8:58 AM)29.34 "Hg (Mar 4, 11:58 AM)
Average-26 °F86%29.71 "Hg
* Reported Feb 17 11:58 AM — Mar 4 11:58 AM, Qaanaaq, Weather by CustomWeather, © 2015

Note: Actual official high and low records may vary slightly from our data, if they occured in-between our weather recording intervals... More about our weather records

Advertising

Qaanaaq weather history for previous 24 hours

 ConditionsComfort  
Time TempWeatherWind HumidityBarometerVisibility
11:58 AM
Wed, Mar 4
-27 °FSunny.6 mph91%29.34 "HgN/A
10:58 AM-27 °FSunny.No wind91%29.36 "HgN/A
9:58 AM-27 °FClear.8 mph91%29.40 "HgN/A
8:58 AM-29 °FClear.10 mph100%29.42 "HgN/A
7:58 AM-26 °FClear.8 mph82%29.44 "HgN/A
6:58 AM-27 °FClear.9 mph91%29.48 "HgN/A
5:58 AM-29 °FClear.5 mph100%29.51 "HgN/A
4:58 AM-29 °FClear.7 mph100%29.53 "HgN/A
3:58 AM-26 °FClear.6 mph82%29.56 "HgN/A
2:58 AM-26 °FClear.1 mph82%29.59 "HgN/A
1:58 AM-24 °FClear.6 mph75%29.60 "HgN/A
12:58 AM-26 °FClear.7 mph82%29.62 "HgN/A
11:58 PM
Tue, Mar 3
-27 °FClear.6 mph91%29.65 "HgN/A
10:58 PM-26 °FClear.8 mph82%29.67 "HgN/A
9:58 PM-27 °FClear.13 mph91%29.69 "HgN/A
8:58 PM-27 °FClear.7 mph91%29.72 "HgN/A
7:58 PM-26 °FClear.7 mph82%29.72 "HgN/A
6:58 PM-27 °FSunny.1 mph91%29.74 "HgN/A
5:58 PM-26 °FSunny.6 mph82%29.75 "HgN/A
4:55 PM-27 °FSunny.No wind91%29.83 "HgN/A
3:55 PM-24 °FSunny.5 mph75%29.83 "HgN/A
2:55 PM-22 °FSunny.9 mph68%29.83 "HgN/A
12:58 PM-24 °FSunny.5 mph75%29.78 "HgN/A
Weather by CustomWeather, © 2015

See weather overviewHow to use our weather pages